[[{"header":{"parameterUnit":"m.s-1","parameterCategory":1,"la1":30.2991,"la2":30.254,"lo1":-89.0895,"lo2":-89.0444,"dy":0.0017,"dx":0.0017,"nx":28,"ny":28,"refTime":"2025-07-05T03:00:00:Z","depth":0,"parameterNumber":2,"parameterNumberName":"U-component_of_WINDS"},"data":[0,0,0,0,0,0,0,0,0,0,0,0,0,0,0,0,0,0,0,0,0,0,0,0,0,0,0,0,0,0,0,0,0,0,0,0,0,0,0,0,0,0,0,0,0,0,0,0,0,0,0,0,0,0,0,0,0,0,0.0793,0.0794,0,0.0888,0.089,0.0891,0.0934,0.0934,0.0934,0.0934,0.1032,0.1035,0.1038,0,0,0,0,0,0,0,0,0,0,0,0,0,0.065,0.0652,0.0793,0.0795,0.0796,0.0888,0.089,0.0891,0.0934,0.0934,0.0934,0.0934,0.1031,0.1035,0.1038,0,0,0,0,0,0,0,0,0,0,0,0,0,0.0725,0.0653,0.0793,0.0828,0.0833,0.0888,0.089,0.0891,0.0934,0.0934,0.0934,0.0934,0.103,0.1034,0.1038,0.1066,0,0,0.1051,0.1053,0,0,0,0,0,0,0,0,0.0721,0.0731,0.0822,0.0826,0.0831,0.0899,0.0875,0.095,0.0934,0.0896,0.0934,0.0934,0.0988,0.0996,0.1014,0.1071,0.1075,0.1051,0.1054,0.1055,0.1057,0,0,0,0,0,0,0,0.0716,0.0727,0.0831,0.0823,0.0829,0.084,0.085,0.089,0.0942,0.0899,0.0902,0.0913,0.0991,0.101,0.1017,0.1077,0.1051,0.1055,0.1057,0.1059,0.1161,0.1161,0,0,0,0,0,0,0.0705,0.0722,0.0828,0.0834,0.0774,0.0842,0.0854,0.0877,0.0941,0.0951,0.0913,0.0915,0.1003,0.1012,0.102,0.1057,0.1055,0.1059,0.1062,0.1161,0.1161,0.1161,0,0,0,0,0,0,0.0701,0.0714,0.0824,0.0779,0.0794,0.0845,0.0871,0.0879,0.0899,0.0952,0.0961,0.0923,0.1003,0.1015,0.1054,0.1061,0.1061,0.1065,0.1161,0.1161,0.1161,0.1131,0,0,0,0,0,0,0.0697,0.0712,0.0723,0.0779,0.0796,0.0856,0.0871,0.0881,0.0905,0.0909,0.0964,0.0973,0.1004,0.1048,0.1058,0.1067,0.1068,0.116,0.1161,0.1161,0.1132,0.113,0.1129,0,0,0,0,0,0.0692,0.0711,0.0724,0.0736,0.0811,0.0857,0.0867,0.0902,0.0906,0.0917,0.0951,0.0971,0.1059,0.1052,0.1064,0.1074,0.116,0.1161,0.1161,0.1132,0.1131,0.1129,0,0,0,0,0,0,0.0656,0.0719,0.0734,0.0772,0.0808,0.0864,0.088,0.0899,0.0936,0.0937,0.0979,0.0991,0.1028,0.1055,0.1046,0.1104,0.1111,0.1114,0.1085,0.1084,0.1083,0.1076,0.1071,0,0,0,0,0,0.0652,0.0684,0.0738,0.0766,0.0784,0.0828,0.085,0.0873,0.0913,0.0929,0.0966,0.1005,0.1041,0.1064,0.11,0.1136,0.1148,0.1148,0.1147,0.1146,0.1148,0.1169,0.1169,0.1164,0.1164,0.1164,0,0,0.0645,0.0684,0.0701,0.076,0.0791,0.0823,0.0841,0.0874,0.0899,0.0935,0.0974,0.1003,0.1048,0.1086,0.1105,0.111,0.1152,0.1146,0.1145,0.1148,0.117,0.117,0.117,0.1164,0.1164,0.1164,0,0,0.0649,0.0681,0.0708,0.0739,0.0786,0.0815,0.0822,0.0874,0.0894,0.0935,0.0962,0.0992,0.1053,0.1085,0.1109,0.1123,0.1143,0.1134,0.1128,0.1147,0.1148,0.1149,0.1154,0.1155,0.1136,0.1136,0.1136,0,0.0634,0.0684,0.072,0.0751,0.0776,0.0809,0.0837,0.0865,0.0922,0.0938,0.0943,0.102,0.1054,0.1099,0.1102,0.1121,0.1129,0.1128,0.1145,0.1146,0.1147,0.1153,0.1154,0.1134,0.1134,0.1135,0.1135,0,0.0663,0.0697,0.0713,0.0766,0.0793,0.0823,0.0863,0.0886,0.0907,0.0936,0.0977,0.1018,0.1062,0.1075,0.1096,0.1123,0.1125,0.1137,0.1145,0.1145,0.1152,0.1154,0.1132,0.1133,0.1133,0.1134,0,0,0.0648,0.072,0.0725,0.075,0.0804,0.0831,0.0861,0.0905,0.0924,0.0961,0.0988,0.1039,0.105,0.1077,0.1102,0.1119,0.1128,0.1129,0.1131,0.1128,0.1161,0.1152,0.1154,0.1141,0.1142,0.1142,0.1157,0,0.0659,0.0716,0.0749,0.0792,0.0824,0.0855,0.0882,0.0918,0.0946,0.0977,0.1008,0.1043,0.1055,0.1071,0.109,0.1123,0.1135,0.1122,0.1167,0.1168,0.1155,0.1157,0.1148,0.116,0.116,0.116,0.116,0,0.068,0.0717,0.0763,0.0813,0.0827,0.0851,0.0893,0.0922,0.0964,0.0983,0.1012,0.1037,0.1071,0.1076,0.1123,0.1114,0.1134,0.1153,0.1154,0.116,0.1165,0.1163,0.1165,0.1167,0.1164,0.1164,0.1164,0,0.0664,0.0725,0.0761,0.078,0.084,0.0856,0.0881,0.0922,0.0946,0.0983,0.0999,0.1039,0.1062,0.1092,0.1127,0.1127,0.1171,0.1179,0.1188,0.1187,0.1197,0.1196,0.1202,0.1209,0.1209,0.1208,0.1208,0,0.0674,0.0701,0.0754,0.0776,0.0807,0.0845,0.0875,0.0903,0.0939,0.0967,0.0997,0.1022,0.1067,0.1098,0.1126,0.1161,0.117,0.1187,0.1194,0.1185,0.1182,0.1199,0.1199,0.1209,0.1209,0.1209,0.1209,0,0.0662,0.0699,0.0739,0.0792,0.0806,0.0826,0.0871,0.0894,0.0923,0.0958,0.0968,0.1013,0.1052,0.1089,0.1141,0.1159,0.1194,0.1203,0.118,0.1184,0.1191,0.119,0.1208,0.1213,0.1216,0.1216,0.1216,0,0.0666,0.0687,0.0742,0.0763,0.0787,0.082,0.0845,0.0882,0.0907,0.0955,0.0972,0.1012,0.1046,0.1105,0.1143,0.1182,0.1193,0.1197,0.1199,0.1189,0.1194,0.1192,0.1194,0.1196,0.1196,0.1195,0.1195,0,0.0669,0.0686,0.072,0.076,0.0788,0.0821,0.0856,0.0871,0.0916,0.0941,0.098,0.1007,0.1059,0.1098,0.1142,0.1168,0.1189,0.1194,0.1198,0.1189,0.1175,0.1183,0.1177,0.1194,0.1194,0.1194,0.1194,0.1194,0.0666,0.0686,0.0728,0.0764,0.0794,0.0825,0.0849,0.0881,0.0914,0.0959,0.0979,0.1018,0.1059,0.112,0.1146,0.1177,0.1182,0.1188,0.119,0.1191,0.1189,0.1169,0.1185,0.1185,0.1185,0.1185,0.1185,0,0.067,0.0698,0.0732,0.0779,0.0808,0.0824,0.0863,0.0886,0.092,0.0956,0.0989,0.1034,0.1072,0.1112,0.1153,0.117,0.1181,0.118,0.1179,0.1185,0.1182,0.1174,0.117,0.117,0.117,0.117,0.117,0.117,0.0676,0.0712,0.0734,0.0784,0.0813,0.0851,0.0872,0.0901,0.093,0.0978,0.101,0.1036,0.1074,0.1117,0.1153,0.1164,0.1178,0.1174,0.1187,0.1184,0.1185,0.1186,0.1179,0.1176,0.1176,0.1188,0.1188,0.1188]},{"header":{"parameterUnit":"m.s-1","parameterCategory":1,"la1":30.2991,"la2":30.254,"lo1":-89.0895,"lo2":-89.0444,"dy":0.0017,"dx":0.0017,"nx":28,"ny":28,"refTime":"2025-07-05T03:00:00:Z","depth":0,"parameterNumber":3,"parameterNumberName":"V-component_of_WINDS"},"data":[0,0,0,0,0,0,0,0,0,0,0,0,0,0,0,0,0,0,0,0,0,0,0,0,0,0,0,0,0,0,0,0,0,0,0,0,0,0,0,0,0,0,0,0,0,0,0,0,0,0,0,0,0,0,0,0,0,0,2.9281,2.9281,0,2.9244,2.9244,2.9243,2.9275,2.9276,2.9277,2.9278,2.9234,2.9231,2.9229,0,0,0,0,0,0,0,0,0,0,0,0,0,2.9371,2.9369,2.9281,2.928,2.928,2.9244,2.9244,2.9243,2.9274,2.9276,2.9278,2.9279,2.9235,2.9232,2.9229,0,0,0,0,0,0,0,0,0,0,0,0,0,2.9332,2.9368,2.9281,2.9291,2.9292,2.9245,2.9244,2.9243,2.9274,2.9276,2.9278,2.928,2.9235,2.9232,2.9228,2.9167,0,0,2.9217,2.9216,0,0,0,0,0,0,0,0,2.9335,2.9329,2.929,2.9291,2.9291,2.9266,2.9259,2.9217,2.9274,2.9281,2.9278,2.9281,2.9242,2.9238,2.9227,2.9164,2.9163,2.9217,2.9215,2.9213,2.9212,0,0,0,0,0,0,0,2.9337,2.9331,2.9266,2.929,2.929,2.9296,2.9292,2.9251,2.9251,2.928,2.9282,2.9278,2.9243,2.923,2.9226,2.9162,2.9217,2.9214,2.9212,2.921,2.9046,2.9044,0,0,0,0,0,0,2.934,2.9333,2.9267,2.9265,2.9318,2.9292,2.9289,2.9272,2.9251,2.925,2.9276,2.928,2.9236,2.923,2.9225,2.9151,2.9213,2.921,2.9208,2.9048,2.9046,2.9043,0,0,0,0,0,0,2.9342,2.9334,2.9269,2.93,2.9292,2.9289,2.927,2.927,2.9258,2.9249,2.9248,2.9264,2.9237,2.923,2.9181,2.9149,2.9208,2.9205,2.9051,2.9047,2.9044,2.9002,0,0,0,0,0,0,2.9344,2.9334,2.9312,2.9299,2.929,2.9228,2.9268,2.9268,2.9252,2.9256,2.9237,2.9235,2.9238,2.9186,2.9178,2.9146,2.9202,2.9054,2.9049,2.9045,2.9006,2.8998,2.8991,0,0,0,0,0,2.9347,2.93,2.9311,2.9303,2.9263,2.9226,2.9221,2.9227,2.925,2.9227,2.9221,2.9236,2.9155,2.9181,2.9171,2.9138,2.9056,2.905,2.9046,2.901,2.9,2.8991,0,0,0,0,0,0,2.9307,2.9299,2.931,2.9259,2.9243,2.9232,2.9203,2.9216,2.9192,2.9196,2.9202,2.9197,2.9146,2.9137,2.9167,2.9077,2.9108,2.9101,2.9084,2.9075,2.9067,2.907,2.9199,0,0,0,0,0,2.9293,2.9266,2.9259,2.9214,2.9206,2.9205,2.9189,2.9196,2.9179,2.9172,2.9162,2.9143,2.9114,2.9094,2.9066,2.9005,2.9001,2.8977,2.8969,2.8963,2.8956,2.8923,2.8912,2.9027,2.9027,2.9027,0,0,2.9262,2.9254,2.9236,2.9205,2.9194,2.9164,2.92,2.9166,2.9143,2.9166,2.912,2.9112,2.9091,2.9037,2.9012,2.9027,2.8924,2.8957,2.8952,2.8949,2.8917,2.8906,2.8896,2.9024,2.9024,2.9025,0,0,2.919,2.9182,2.9144,2.9132,2.9116,2.9116,2.9107,2.9093,2.9089,2.9044,2.9061,2.9032,2.8981,2.8965,2.8951,2.8874,2.8886,2.8864,2.8822,2.879,2.8781,2.8773,2.8744,2.8734,2.8858,2.8857,2.8857,0,2.9153,2.9111,2.9121,2.9087,2.9072,2.9094,2.9054,2.9041,2.9015,2.9004,2.9022,2.8959,2.8946,2.8888,2.8869,2.8857,2.8845,2.8866,2.8782,2.8774,2.8766,2.8739,2.8729,2.8855,2.8855,2.8855,2.8856,0,2.9066,2.9036,2.9006,2.8983,2.8965,2.8928,2.8931,2.8911,2.8918,2.8916,2.8869,2.8855,2.8824,2.8811,2.8817,2.8753,2.8763,2.8781,2.8813,2.8753,2.8727,2.8717,2.8851,2.8852,2.8853,2.8853,0,0,2.8967,2.8952,2.894,2.893,2.8914,2.889,2.8853,2.8825,2.8808,2.8789,2.8757,2.8713,2.873,2.8713,2.8718,2.869,2.8628,2.8711,2.8711,2.8696,2.8556,2.8542,2.853,2.8637,2.8635,2.8634,2.8557,0,2.8894,2.8833,2.8841,2.8781,2.8753,2.8773,2.8741,2.8726,2.8722,2.8696,2.8691,2.866,2.8686,2.8676,2.8649,2.8642,2.86,2.8647,2.8605,2.8604,2.8609,2.8516,2.8502,2.843,2.8547,2.8546,2.8544,0,2.8801,2.8782,2.872,2.8708,2.8696,2.8667,2.8643,2.8618,2.8601,2.86,2.8582,2.8592,2.8552,2.8586,2.853,2.8562,2.8546,2.8539,2.8537,2.8532,2.857,2.8509,2.8407,2.8396,2.8529,2.853,2.8531,0,2.8735,2.8693,2.865,2.8641,2.8626,2.8605,2.8597,2.8583,2.8566,2.8543,2.8532,2.8504,2.8489,2.8466,2.8467,2.8492,2.8411,2.8445,2.8407,2.8407,2.8389,2.839,2.8283,2.8379,2.8379,2.8379,2.838,0,2.8652,2.8613,2.8621,2.8594,2.855,2.8559,2.8515,2.8509,2.8496,2.8467,2.8482,2.8455,2.8458,2.843,2.843,2.8383,2.8376,2.8373,2.8374,2.8372,2.8372,2.836,2.8365,2.8377,2.8377,2.8378,2.8378,0,2.8571,2.8574,2.8529,2.8519,2.8516,2.8484,2.8475,2.8448,2.8447,2.841,2.8402,2.8398,2.8366,2.8365,2.8326,2.8327,2.827,2.8276,2.8276,2.8277,2.824,2.8243,2.8121,2.8105,2.8212,2.8211,2.821,0,2.8517,2.8488,2.8476,2.8459,2.8451,2.8423,2.8407,2.8414,2.8396,2.8374,2.835,2.8319,2.8295,2.8241,2.8234,2.8204,2.8209,2.8168,2.8204,2.8203,2.8208,2.8209,2.8206,2.8161,2.816,2.8159,2.8158,0,2.8423,2.8426,2.8403,2.838,2.8361,2.8342,2.8325,2.831,2.8315,2.8293,2.8261,2.8243,2.8205,2.8173,2.8145,2.8134,2.8146,2.8147,2.8137,2.8134,2.8135,2.8133,2.8256,2.8149,2.815,2.8151,2.8151,2.8152,2.8353,2.8328,2.8316,2.8289,2.8278,2.8262,2.8238,2.8234,2.8208,2.8179,2.8184,2.8148,2.8131,2.8094,2.8082,2.8052,2.8066,2.8051,2.8047,2.8043,2.8039,2.8141,2.8046,2.8047,2.8047,2.8047,2.8047,0,2.8258,2.8252,2.8228,2.8205,2.8184,2.82,2.8182,2.8162,2.8131,2.8115,2.8092,2.8054,2.8024,2.8015,2.7985,2.7963,2.7967,2.7954,2.7956,2.7953,2.8029,2.804,2.7951,2.7951,2.7951,2.7951,2.7951,2.7951,2.8207,2.8165,2.8167,2.812,2.8113,2.808,2.8068,2.8053,2.804,2.7999,2.7975,2.797,2.7956,2.7925,2.7897,2.7895,2.7883,2.7867,2.7867,2.7938,2.7948,2.7957,2.7968,2.7865,2.7865,2.7794,2.7793,2.7793]}]]